Regional Weather Roundup
Issued by NWS

Home | Current Version | Previous Version | Graphics & Text | Print | Product List | Glossary On
Versions: 1 2 3 4 5 6 7 8 9 10 11 12 13 14 15 16 17 18 19 20 21 22 23 24 25 26 27 28 29 30 31 32 33 34 35 36 37 38 39 40 41 42 43 44 45 46 47 48 49 50
000
ASUS43 KDTX 300810
RWRMI
MICHIGAN HOURLY REGIONAL WEATHER ROUNDUP
NATIONAL WEATHER SERVICE DETROIT/PONTIAC MI
400 AM EDT MON MAR 30 2015

NOTE: "FAIR" INDICATES FEW OR NO CLOUDS BELOW 12,000 FEET WITH NO
SIGNIFICANT WEATHER AND/OR OBSTRUCTION TO VISIBILITY.

MIZ047>049-052>055-059>063-066>070-074>076-081>083-300900-
SOUTHEAST LOWER MICHIGAN

CITY           SKY/WX    TMP DP  RH WIND       PRES   REMARKS
ADRIAN         CLOUDY    41  31  67 W12       29.85R
ALMA           CLOUDY    39  33  79 W15G21    29.79R WCI  31
ANN ARBOR      CLOUDY    40  31  70 W14       29.81R WCI  32
BAD AXE        MOCLDY    36  31  83 W13G23    29.68R WCI  27
CARO           PTCLDY    36  32  86 W13       29.72R WCI  27
DETROIT CITY   MOCLDY    43  30  60 W12G23    29.78R
DETROIT        MOCLDY    41  31  67 W14G22    29.80R
FLINT          MOCLDY    40  32  73 W16       29.77R WCI  31
GROSSE ILE     MOCLDY    43  32  65 W15G21    29.79R
HILLSDALE      CLOUDY    40  32  75 W13G18    29.84R WCI  32
HOWELL         CLOUDY    39  32  77 W14G20    29.79R WCI  31

CITY           SKY/WX    TMP DP  RH WIND       PRES   REMARKS
JACKSON        CLOUDY    39  31  72 W16       29.83R WCI  30
LAMBERTVILLE   MOCLDY    43  32  65 W12       29.85R
LANSING        PTCLDY    38  31  76 W15G21    29.82R WCI  29
LAPEER         CLOUDY    38  32  79 W9G23     29.74R WCI  31
MASON          CLOUDY    38  32  78 W15G21    29.82R WCI  29
MONROE         CLOUDY    41  32  70 W13G18    29.81R
MT. CLEMENS    CLOUDY    41  31  67 W14G29    29.73R
PONTIAC        CLOUDY    38  31  76 W17       29.76R WCI  28
PORT HOPE        N/A     37  29  72 W14G26    29.63R WCI  28
PORT HURON     CLOUDY    39  32  75 W12G20    29.73R WCI  32
TRI CITIES     CLOUDY    40  32  73 W17G26    29.75R WCI  31
TROY           CLOUDY    42  31  66 W8G23     29.79R
SAGINAW HB     CLOUDY    37  32  81 W15G22    29.74R WCI  28
$$
MIZ043>046-050>051-056>058-064>065-071>073-077>080-300900-
SOUTHWEST LOWER MICHIGAN

CITY           SKY/WX    TMP DP  RH WIND       PRES   REMARKS
BATTLE CREEK   PTCLDY    38  29  70 W13       29.86R WCI  30
BENTON HARBOR  CLEAR     38  32  79 W15       29.93R WCI  29
BIG RAPIDS     PTCLDY    36  32  84 W9        29.78R WCI  29
COLDWATER      MOCLDY    37  30  75 W8        29.88R WCI  31
FREMONT        FAIR      36  30  79 W10       29.83R WCI  28
HOLLAND        CLEAR     39  31  72 W16G25    29.88R WCI  30
GRAND RAPIDS   CLEAR     38  29  70 W16       29.85R WCI  29
IONIA          FAIR      38  32  77 W14       29.82R WCI  30
KALAMAZOO      CLEAR     40  28  62 W10G21    29.88R WCI  33
LUDINGTON      CLEAR     38  32  79 W8        29.83R WCI  32
MARSHALL       MOCLDY    37  30  76 W12       29.85R WCI  29
MOUNT PLEASANT MOCLDY    38  32  78 W13       29.76R WCI  30
MUSKEGON       CLEAR     39  29  67 W15       29.86R WCI  31
SOUTH HAVEN    CLEAR     39  32  77 W12G17    29.91S WCI  31
$$
MIZ016>042-300900-
NORTHERN LOWER MICHIGAN

CITY           SKY/WX    TMP DP  RH WIND       PRES   REMARKS
ALPENA         CLOUDY    36  31  82 W14G20    29.61R WCI  27
BEAVER ISLAND  CLEAR     32  31  94 W10       29.69R WCI  24
BELLAIRE       CLOUDY    37  31  79 W7G16     29.73R WCI  31
CADILLAC       CLOUDY    35  31  85 W10G16    29.74R WCI  27
CHARLEVOIX     PTCLDY    34  32  93 W14       29.73R WCI  24
FRANKFORT      MOCLDY    38  30  72 W10G16    29.79R WCI  32
GAYLORD        CLOUDY    33  32  96 W12G25    29.66R WCI  24
GRAYLING       CLOUDY    35  31  85 W15G25    29.69R WCI  25
HARBOR SPRINGS CLOUDY    33  32  96 W6        29.68R WCI  28
HOUGHTON LAKE  CLOUDY    35  30  82 NW16G28   29.70R WCI  25
MANISTEE       PTCLDY    36  28  75 W15G21    29.81R WCI  26
OSCODA         CLOUDY    37  32  82 W12       29.63S WCI  29
PELLSTON       MOCLDY    35  31  85 W13       29.66R WCI  26
ROGERS CITY    CLOUDY    35  33  92 W10G24    29.62R WCI  27
TRAVERSE CITY  CLOUDY    37  29  72 W13       29.74R WCI  29
$$
MIZ007>008-015-300900-
EASTERN UPPER MICHIGAN

CITY           SKY/WX    TMP DP  RH WIND       PRES   REMARKS
KINROSS        CLOUDY    34  34 100 NW21G31   29.57R WCI  22
MACKINAC ISLAN CLOUDY    34  32  92 W12G24    29.63R WCI  26
NEWBERRY       PTCLDY    33  29  88 W13G22    29.63R WCI  23
S. S. MARIE    CLOUDY    34  29  82 NW15G29   29.57R WCI  24
MUNISING         N/A     39  27  62 NW15G23   29.68S WCI  31
$$
MIZ004>006-011>014-085-300900-
CENTRAL UPPER MICHIGAN

CITY           SKY/WX    TMP DP  RH WIND       PRES   REMARKS
MANISTIQUE     PTCLDY    33  31  94 W7        29.68S WCI  26
ESCANABA       CLEAR     36  28  75 W12       29.73R WCI  27
MENOMINEE      CLEAR     36  27  69 W7        29.79R WCI  30
SAWYER-GWINN   CLOUDY    36  28  75 NW12      29.70R WCI  27
$$
MIZ001>003-009>011-084-300900-
WESTERN UPPER MICHIGAN

CITY           SKY/WX    TMP DP  RH WIND       PRES   REMARKS
IRON MOUNTAIN  PTCLDY    35  27  72 W9        29.73F WCI  28
HOUGHTON       LGT SNOW  34  30  85 NW15      29.70R FOG     WCI  24
COPPER HARBOR    N/A     35  27  72 N8        29.70R WCI  29
IRONWOOD       CLEAR     36  27  69 W15       29.77S WCI  26
$$

ABBREVIATIONS USED IN REMARKS
   TC - TEMPERATURE IN CELSIUS
  WCI - WIND CHILL INDEX
   HX - HEAT INDEX
  VSB - VISIBILITY




USA.gov is the U.S. government's official web portal to all federal, state and local government web resources and services.